Winslow, AZ

2:16 AM MST on April 27, 2018 (GMT -0700)
Winslow-Lindbergh Regional

Weather History for KINW - October, 2013

Change the Weather History Date:

Wednesday, October 23, 2013

  Actual Average Record
Temperature  
Mean Temperature 53 °F 54 °F  
Max Temperature 76 °F 71 °F 84 °F (2003)
Min Temperature 30 °F 36 °F 21 °F (1995)
Degree Days  
Heating Degree Days 12 11  
Month to date heating degree days 272 170  
Since 1 July heating degree days 305 201  
Cooling Degree Days 0 0  
Month to date cooling degree days 0 6  
Year to date cooling degree days 1380 1207  
Growing Degree Days 2 (Base 50)    
Moisture  
Dew Point 18 °F    
Average Humidity 35    
Maximum Humidity 59    
Minimum Humidity 10    
Precipitation  
Precipitation 0.00 in 0.01 in 0.22 in (1974)
Month to date precipitation 0.25 0.40  
Year to date precipitation 6.88 5.81  
Sea Level Pressure  
Sea Level Pressure 30.07 in    
Wind  
Wind Speed 4 mph (SSE)    
Max Wind Speed 12 mph    
Max Gust Speed 15 mph    
Visibility 10 miles    
Events      
T = Trace of Precipitation, MM = Missing Value Source: NWS Daily Summary

Daily Weather History Graph

Daily Weather History Graph

Search for Another Location

Airport or City:

Astronomy

Oct. 23, 2013 Rise Set
Actual Time 6:35 AM MST 5:37 PM MST
Civil Twilight 6:10 AM MST 6:03 PM MST
Nautical Twilight 5:40 AM MST 6:33 PM MST
Astronomical Twilight 5:11 AM MST 7:02 PM MST
Moon 9:17 PM MST (10/23) 10:49 AM MST (10/23)
Length of Visible Light 11h 53m
Length of Day
11h 01m
Waning Gibbous, 78% of the Moon is Illuminated
Oct 23
Waning Gibbous
Oct 26
Last Quarter
Nov 3
New
Nov 9
First Quarter
Nov 17
Full

Hourly Weather History & Observations

Time (MST) Temp. Windchill Dew Point Humidity Pressure Visibility Wind Dir Wind Speed Gust Speed Precip Events Conditions
12:56 AM 37.9 °F 35.5 °F 21.0 °F 51% 30.11 in 10.0 mi SW 3.5 mph - N/A   Clear
1:56 AM 39.9 °F 37.8 °F 21.9 °F 49% 30.09 in 10.0 mi ESE 3.5 mph - N/A   Clear
2:56 AM 36.0 °F - 19.9 °F 52% 30.10 in 10.0 mi Calm Calm - N/A   Clear
3:56 AM 33.1 °F - 18.0 °F 54% 30.11 in 10.0 mi Calm Calm - N/A   Clear
4:56 AM 32.0 °F - 19.0 °F 59% 30.12 in 10.0 mi Calm Calm - N/A   Clear
5:56 AM 30.0 °F - 18.0 °F 61% 30.18 in 10.0 mi Calm Calm - N/A   Clear
6:56 AM 32.0 °F 27.5 °F 19.0 °F 59% 30.19 in 10.0 mi SW 4.6 mph - N/A   Clear
7:56 AM 41.0 °F 36.4 °F 17.1 °F 38% 30.19 in 10.0 mi ESE 6.9 mph - N/A   Clear
8:56 AM 46.0 °F 42.5 °F 18.0 °F 33% 30.18 in 10.0 mi ESE 6.9 mph - N/A   Clear
9:56 AM 54.0 °F - 19.0 °F 25% 30.14 in 10.0 mi East 6.9 mph - N/A   Clear
10:56 AM 61.0 °F - 19.0 °F 20% 30.11 in 10.0 mi Variable 3.5 mph - N/A   Clear
11:56 AM 66.0 °F - 19.9 °F 17% 30.06 in 10.0 mi Calm Calm - N/A   Clear
12:56 PM 71.1 °F - 19.9 °F 14% 30.02 in 10.0 mi Variable 4.6 mph - N/A   Clear
1:56 PM 75.0 °F - 17.1 °F 11% 29.98 in 10.0 mi ESE 8.1 mph - N/A   Clear
2:56 PM 75.0 °F - 16.0 °F 11% 29.98 in 10.0 mi Variable 4.6 mph - N/A   Clear
3:56 PM 75.0 °F - 15.1 °F 10% 29.98 in 10.0 mi ENE 5.8 mph - N/A   Clear
4:56 PM 73.0 °F - 15.1 °F 11% 29.98 in 10.0 mi NE 6.9 mph - N/A   Clear
5:56 PM 66.9 °F - 16.0 °F 14% 30.01 in 10.0 mi North 3.5 mph - N/A   Clear
6:56 PM 57.0 °F - 15.1 °F 19% 30.04 in 10.0 mi Calm Calm - N/A   Clear
7:56 PM 52.0 °F - 15.1 °F 23% 30.04 in 10.0 mi WSW 5.8 mph - N/A   Clear
8:56 PM 51.1 °F - 19.0 °F 28% 30.05 in 10.0 mi WSW 4.6 mph - N/A   Clear
9:56 PM 48.9 °F - 18.0 °F 29% 30.04 in 10.0 mi WSW 4.6 mph - N/A   Clear
10:56 PM 48.9 °F - 19.9 °F 32% 30.03 in 10.0 mi SSE 4.6 mph - N/A   Clear
11:56 PM 44.1 °F 41.5 °F 19.9 °F 38% 30.03 in 10.0 mi SW 4.6 mph - N/A   Clear